Flag for U.S.A. Weather past 2 weeks in Warminster Township, Pennsylvania, U.S.A.

Now
52 °F

Clear.


Feels Like: 52 °F
Forecast: 54 / 79 °F
Wind: No wind

Location: Doylestown Airport

Current Time: May 7, 2015 at 1:50:51 AM

Latest Report: May 7, 2015 at 12:54 AM


Visibility: 10 mi

Pressure: 30.23 "Hg

Humidity: 86%

Dew point: 48 °F

Location of Warminster TownshipLocation

Historic Weather in Warminster Township — Graph

°F

Warminster Township temperature yesterday

Maximum temperature yesterday: 68 °F (at 12:54 AM)
Minimum temperature yesterday: 53 °F (at 11:54 PM)
Average temperature yesterday: 63 °F

Past Weeks' High & Low Weather Summary

 TemperatureHumidityPressure
High83 °F (May 5, 1:54 PM)97% (May 2, 3:54 AM)30.27 "Hg (May 2, 3:54 AM)
Low31 °F (Apr 25, 2:54 AM)18% (May 4, 12:54 PM)29.55 "Hg (Apr 22, 1:54 PM)
Average55 °F52%29.90 "Hg
* Reported Apr 22 12:54 AM — May 7 12:54 AM, Warminster Township, Weather by CustomWeather, © 2015

Note: Actual official high and low records may vary slightly from our data, if they occured in-between our weather recording intervals... More about our weather records

Advertising

Warminster Township weather history for previous 24 hours

 ConditionsComfort  
Time TempWeatherWind HumidityBarometerVisibility
12:54 AM
Thu, May 7
52 °FClear.No wind86%30.23 "Hg10 mi
11:54 PM
Wed, May 6
53 °FClear.No wind83%30.23 "Hg10 mi
10:54 PM55 °FPassing clouds.No wind77%30.23 "Hg10 mi
9:54 PM57 °FPassing clouds.No wind74%30.23 "Hg10 mi
8:54 PM59 °FOvercast.No wind69%30.22 "Hg10 mi
7:54 PM60 °FPassing clouds.No wind65%30.21 "Hg10 mi
6:54 PM63 °FPartly sunny.No wind56%30.21 "Hg10 mi
5:54 PM63 °FOvercast.No wind56%30.22 "Hg10 mi
4:54 PM64 °FMore clouds than sun.7 mph47%30.23 "Hg10 mi
3:54 PM66 °FOvercast.6 mph42%30.23 "Hg10 mi
2:54 PM68 °FPartly sunny.7 mph38%30.23 "Hg10 mi
1:54 PM68 °FPartly sunny.7 mph42%30.24 "Hg10 mi
12:54 PM66 °FOvercast.5 mph47%30.26 "Hg10 mi
11:54 AM68 °FPartly sunny.3 mph39%30.27 "Hg10 mi
10:54 AM67 °FBroken clouds.N/A44%30.27 "Hg10 mi
9:54 AM65 °FMostly cloudy.8 mph47%30.27 "Hg10 mi
8:54 AM63 °FMostly cloudy.8 mph50%30.27 "Hg10 mi
7:54 AM64 °FMore clouds than sun.7 mph56%30.24 "Hg10 mi
6:54 AM63 °FOvercast.3 mph68%30.22 "Hg10 mi
5:54 AM63 °FOvercast.No wind70%30.21 "Hg10 mi
4:54 AM62 °FMostly cloudy.No wind83%30.19 "Hg10 mi
3:54 AM64 °FOvercast.3 mph78%30.18 "Hg10 mi
2:54 AM64 °FMostly cloudy.No wind78%30.17 "Hg10 mi
1:54 AM66 °FPassing clouds.No wind70%30.18 "Hg10 mi
Weather by CustomWeather, © 2015

See weather overviewHow to use our weather pages